Location: Hoyos del Collado
(40.3594°N, 5.2003°W)
Time: 17:06:43
(UTC+00:00)

Tiangong - Visible Passes

Search period start: 16 December 2025 00:00
Search period end: 26 December 2025 00:00
Orbit: 384 x 395 km, 41.5° (Epoch: 15 December)

Date Brightness Start Highest point End Pass type
(mag) Time Alt. Az. Time Alt. Az. Time Alt. Az.
20 Dec 0.6 19:01:41 10° SSW 19:02:18 13° S 19:02:18 13° S visible
21 Dec 0.4 18:05:00 10° SSE 18:05:59 11° SE 18:06:59 10° SE visible
21 Dec 1.4 19:39:21 10° SW 19:39:23 10° SW 19:39:23 10° SW visible
22 Dec -0.9 18:41:25 10° SW 18:44:04 31° SSE 18:44:04 31° SSE visible
23 Dec -0.2 17:43:46 10° SSW 17:46:11 20° SSE 17:48:37 10° E visible
23 Dec 0.4 19:19:39 10° WSW 19:20:59 22° WSW 19:20:59 22° WSW visible
24 Dec -1.8 18:21:29 10° WSW 18:24:35 53° SSE 18:25:31 37° ESE visible
25 Dec -1.1 18:59:59 10° W 19:02:19 45° W 19:02:19 45° W visible
